View from above orbital plane
|
View from above satellite
|
Ground track
|
The orbit data is extracted from the following two-line orbital elements,
1 38341U 12025E 21018.72706197 .00000215 00000-0 32769-4 0 9999
2 38341 98.5179 194.0145 0054321 260.2265 99.2810 14.84150166469297
Epoch (UTC): | 18 January 2021 17:26:58 |
Eccentricity: | 0.0054321 |
inclination: | 98.5179° |
perigee height: | 578 km |
apogee height: | 654 km |
right ascension of ascending node: | 194.0145° |
argument of perigee: | 260.2265° |
revolutions per day: | 14.84150166 |
mean anomaly at epoch: | 99.2810° |
orbit number at epoch: | 46929 |
The dashed part of the orbit path shows where the satellite is in the earth's shadow,
|
|